Regional Weather Roundup
Issued by NWS

Home | Current Version | Previous Version | Text Only | Print | Product List | Glossary On
Versions: 1 2 3 4 5 6 7 8 9 10 11 12 13 14 15 16 17 18 19 20 21 22 23 24 25 26 27 28 29 30 31 32 33 34 35 36 37 38 39 40 41 42 43 44 45 46 47 48 49 50
000
ASMX46 KSGX 290203
RWRMX

MEXICAN WEATHER ROUNDUP
NATIONAL WEATHER SERVICE SAN DIEGO CA
700 PM PDT THU AUG 28 2014

BAJA CALIFORNIA

CITY           SKY/WX    TMP DP  RH WIND       PRES   REMARKS
ENSENADA NW      N/A     78  32  18 E7        29.85S
LA PAZ         CLEAR     93  64  38 CALM      29.77  HX  95
LORETO           N/A    N/A N/A N/A MISG        N/A
MEXICALI       CLEAR    106  34   8 W5        29.73  HX  99
S.J. DEL CABO  PTCLDY    90  66  45 CALM      29.78R
TIJUANA        CLEAR     81  54  39 W13       29.93S

NORTHWESTERN MEXICO

CITY           SKY/WX    TMP DP  RH WIND       PRES   REMARKS
CHIHUAHUA      PTCLDY    81  55  41 N6        30.04
CULIACAN       MOCLDY    91  81  70 CALM      29.76  HX 110
GUAYMAS        CLEAR    104  68  31 CALM      29.64  HX 110
HERMOSILLO     CLEAR    106  45  12 N3        29.73  HX 101
JUAREZ         PTCLDY    86  61  42 E6        29.96
LOS MOCHIS     PTCLDY    90  77  66 W7        29.74R HX 102
OBREGON        CLEAR     95  70  43 W7        29.70  HX 101

NORTHEASTERN MEXICO

CITY           SKY/WX    TMP DP  RH WIND       PRES   REMARKS
MATAMOROS      PTCLDY    84  77  79 SE7       29.80
MONTERREY      PTCLDY    90  64  43 E14       29.81R
NUEVO LAREDO   CLEAR     91  72  52 E12       29.80  HX  98
REYNOSA        CLEAR     84  70  61 NE8       29.78
SALTILLO       CLEAR     81  63  54 N9        30.07R
TORREON        PTCLDY    90  50  25 CALM      29.95R
VICTORIA       PTCLDY    90  68  48 E6        29.79

WESTERN MEXICO

CITY           SKY/WX    TMP DP  RH WIND       PRES   REMARKS
AGUASCALIENTES PTCLDY    75  52  43 SW5       30.15
COLIMA         PTCLDY    75  73  94 W9        29.92R
DURANGO        PTCLDY    77  46  33 N3        30.14R
GUADALAJARA    PTCLDY    73  61  64 W10       30.08
MAZATLAN       MOCLDY    84  79  84 SW6       29.76R HX  96
PTO. VALLARTA  PTCLDY    86  79  79 CALM      29.77R HX  99
TEPIC          MOCLDY    77  70  78 N6        30.06R
ZACATECAS      MOCLDY    73  45  35 N7        30.20R

CENTRAL MEXICO

CITY           SKY/WX    TMP DP  RH WIND       PRES   REMARKS
LEON           MOCLDY    66  61  82 N5        30.18R
MEXICO CITY    PTCLDY    72  45  37 N14       30.23R
MORELIA        CLEAR     68  57  68 W6        30.12
POZA RICA      PTCLDY    84  75  74 SE8       29.85R
PUEBLA         MOCLDY    66  54  63 CALM      30.26R
QUERETARO      PTCLDY    73  50  43 NE12      30.18S
S. LUIS POTOSI PTCLDY    75  55  50 SE9       30.13R
TAMPICO        MOCLDY    84  75  74 SE9       29.78R
TOLUCA         PTCLDY    59  43  55 NE5       30.30R
VERACRUZ       CLEAR     82  73  74 E5        29.80S

SOUTHERN MEXICO

CITY           SKY/WX    TMP DP  RH WIND       PRES   REMARKS
ACAPULCO       MOCLDY    86  77  74 W8        29.77R HX  97
OAXACA         MOCLDY    75  52  43 E6        30.09R
TAPACHULA      MOCLDY    77  75  94 CALM      29.86R
TUX. GUTIERREZ MOCLDY    79  68  69 NW15G26   29.88R
VILLAHERMOSA   MOCLDY    81  75  83 CALM      29.86R
ZIHUATANEJO    MOCLDY    86  77  74 CALM      29.79R HX  97

YUCATAN PENINSULA

CITY           SKY/WX    TMP DP  RH WIND       PRES   REMARKS
CAMPECHE       RAIN      77  75  94 NE12      29.84R
CANCUN         MOCLDY    84  77  79 SE7       29.91R
CHETUMAL       PTCLDY    84  75  74 NE6       29.85R
COZUMEL        PTCLDY    79  75  89 E3        29.90R
MERIDA         MOCLDY    75  75 100 CALM      29.89R

$$




USA.gov is the U.S. government's official web portal to all federal, state and local government web resources and services.